Wind_Speed
38 38 37 37 37 36 36 35 35 34 34 34 34 33 32 31 30 29 29 28 27 27 26 25 24 23 22 21 21 19 18 17 16 15 14 13 13 13 12 12 11 11 11
40 39 39 39 38 38 37 37 36 36 36 35 35 34 34 33 32 32 31 31 30 29 29 28 27 26 25 24 23 22 20 19 19 17 16 16 15 15 14 14 14 13 13
42 41 41 40 40 39 39 38 38 38 38 37 37 36 35 35 34 33 33 32 33 32 31 30 29 28 27 26 25 24 23 22 21 20 19 18 18 17 16 16 15 15 15
43 43 43 42 41 41 41 40 40 40 40 40 39 39 38 37 36 35 34 34 34 35 34 33 32 31 30 29 28 27 26 25 24 23 22 21 20 19 19 18 18 18 17
45 44 44 44 43 42 42 42 42 41 41 41 41 40 39 38 37 37 36 36 35 35 35 35 34 33 33 32 31 29 28 27 26 26 25 24 23 22 21 21 21 20 20
46 46 46 46 45 44 44 44 43 43 43 43 42 42 41 40 39 38 37 37 37 37 36 37 36 35 34 34 33 32 31 30 29 28 27 26 26 25 24 23 23 23 22
45 47 47 47 48 47 46 45 45 45 44 45 45 44 43 42 40 39 39 38 38 38 38 37 38 37 36 35 35 34 34 33 32 31 30 29 28 28 27 26 25 25 25
46 47 48 48 48 48 48 47 47 46 46 47 47 46 46 45 42 41 41 40 40 40 40 39 39 39 39 38 38 37 36 36 35 34 33 32 31 30 30 29 28 27 27
48 47 48 49 49 49 49 49 48 48 48 49 49 49 48 47 45 43 43 43 42 42 42 41 41 41 41 40 40 39 39 38 37 36 36 35 33 32 32 31 30 29 29
48 48 49 49 50 50 49 50 50 50 50 49 50 50 50 49 47 46 45 45 45 44 44 43 43 42 42 42 41 41 41 40 39 39 38 37 36 34 33 33 32 31 31
50 50 49 49 50 50 50 50 51 51 52 52 51 51 52 51 49 48 47 46 46 45 45 45 45 44 44 43 43 43 42 42 42 41 40 39 38 37 36 34 34 33 33
50 51 51 50 51 50 50 51 51 52 53 54 53 53 53 54 51 50 49 49 48 47 47 47 47 46 45 45 45 44 44 44 43 43 42 41 40 39 38 37 36 35 35
51 51 52 52 52 52 51 50 52 53 54 54 54 54 54 54 53 53 51 50 50 49 50 49 48 48 48 47 47 46 46 46 46 45 44 43 42 41 40 40 38 37 37
53 52 52 53 53 53 52 50 50 51 52 53 54 55 54 54 54 54 53 52 51 50 50 50 50 50 50 50 48 48 47 47 47 47 46 45 44 43 43 42 41 39 38
53 53 53 53 53 53 53 52 51 52 52 53 54 56 56 55 54 54 54 54 53 51 49 49 50 50 50 50 49 49 49 49 49 48 47 47 46 45 45 44 43 42 41
53 55 55 54 54 54 54 54 52 53 54 54 55 56 56 55 55 54 54 54 55 53 51 49 50 51 51 51 51 50 50 49 49 50 49 49 48 47 47 46 46 45 43
52 54 54 55 55 55 56 55 54 53 55 55 55 56 56 55 55 55 55 55 56 56 54 52 52 52 53 52 52 52 52 51 51 51 51 50 50 49 48 48 47 46 46
51 52 53 54 55 55 56 56 56 55 55 55 54 55 56 55 55 54 55 55 56 57 56 54 53 52 52 52 52 52 52 52 52 53 52 52 52 52 51 50 49 47 47
51 51 52 53 54 55 56 57 58 57 56 55 55 55 56 55 55 55 55 56 57 57 57 56 55 53 53 53 52 52 53 53 54 54 53 53 53 53 52 51 50 49 48
50 51 52 52 54 55 56 56 56 57 57 56 56 56 56 56 55 55 54 55 56 57 57 57 57 56 55 54 54 54 54 55 55 54 54 54 54 53 53 52 51 50 49
50 50 50 50 51 53 55 55 55 56 57 57 56 56 56 56 56 55 54 54 55 56 57 57 56 56 56 56 56 55 55 55 55 55 54 55 55 55 54 53 52 52 51
50 50 49 49 50 51 53 54 55 56 56 56 55 55 56 57 56 56 56 56 56 57 57 57 57 56 56 56 56 56 55 56 56 55 56 55 55 55 54 54 54 53 53
48 49 50 50 50 50 51 53 54 55 55 56 56 55 56 57 58 58 58 58 57 57 57 58 58 58 57 57 57 57 56 56 56 55 56 55 55 55 55 55 55 54 54
44 46 47 49 49 50 51 52 53 55 56 55 55 55 56 57 58 58 58 58 57 57 58 60 59 59 59 59 58 58 57 56 55 55 55 55 55 56 56 56 56 55 55
42 44 45 46 47 48 48 50 51 53 54 54 54 54 55 55 56 58 58 57 56 57 58 59 59 60 60 60 60 59 58 58 56 56 55 55 55 56 56 56 56 55 55
40 41 42 43 45 46 47 48 50 51 52 53 53 53 54 54 55 56 57 56 56 56 57 58 59 59 59 59 60 59 58 58 57 57 56 56 55 56 57 56 56 56 55
Wind_Direction
254 254 254 255 253 253 253 251 250 248 246 244 244 243 243 241 241 241 240 238 238 238 238 238 238 238 237 238 240 242 243 244 245 245 247 251 253 254 258 264 267 270 274
253 254 254 254 253 253 252 251 249 247 245 244 242 242 242 241 240 240 241 240 239 238 238 238 238 239 238 239 240 242 243 244 246 246 248 252 254 256 258 261 264 267 271
253 255 253 252 252 252 251 250 249 247 245 244 242 243 242 242 241 241 241 241 240 238 238 238 238 238 239 239 240 242 244 245 246 247 250 252 254 255 258 261 263 266 268
254 255 254 252 251 251 251 250 249 248 245 243 243 243 243 243 242 243 243 242 241 240 239 238 238 238 239 240 241 242 244 245 246 248 250 253 254 256 259 261 264 266 268
253 254 253 252 252 251 251 250 249 248 245 243 242 242 241 242 242 242 243 242 241 241 240 239 239 238 239 240 241 243 244 245 246 248 250 252 254 256 258 261 264 267 269
253 253 253 252 252 251 251 250 249 248 245 243 242 241 241 242 241 241 242 242 242 241 241 240 239 239 239 240 241 243 244 245 246 248 250 251 253 256 257 260 263 266 269
254 254 253 252 251 250 250 249 249 247 246 244 242 241 240 241 241 241 242 242 243 242 242 241 240 239 239 241 242 243 245 246 247 248 250 251 253 256 258 260 262 265 267
255 254 253 252 251 250 250 249 248 246 245 244 243 242 241 242 242 242 242 242 243 242 242 243 242 241 240 241 242 244 245 246 247 249 250 252 253 255 258 261 262 264 265
256 255 254 253 251 250 249 249 248 246 245 244 244 244 243 242 242 243 243 243 243 243 243 243 243 243 242 241 243 244 245 247 248 249 251 252 253 256 258 260 262 263 264
255 256 254 253 252 249 248 248 247 246 246 245 244 244 243 241 241 242 242 243 244 244 244 243 243 243 242 242 243 244 245 246 248 249 250 252 253 255 258 259 261 262 263
255 255 255 253 251 250 248 248 247 246 246 246 245 245 244 242 242 241 240 241 243 245 245 245 244 244 243 243 243 244 245 246 247 249 250 252 253 254 256 258 260 261 262
256 255 255 254 252 250 249 249 248 248 247 246 245 245 244 243 243 241 240 240 243 244 245 246 246 244 244 244 245 245 244 245 247 248 250 251 253 254 256 257 258 260 262
256 255 255 254 253 252 251 250 250 250 248 247 246 246 245 244 244 243 242 241 242 244 245 246 246 246 246 245 246 246 246 246 247 248 249 250 253 254 255 257 258 260 261
255 255 255 254 253 251 250 249 249 249 248 247 246 246 245 245 244 243 242 242 243 244 244 245 246 247 247 247 247 246 246 247 247 248 249 250 252 254 255 257 258 258 259
255 254 254 253 252 252 251 250 249 249 249 248 247 246 244 243 244 243 243 243 244 244 243 244 245 246 246 247 247 246 246 247 248 248 249 250 252 253 255 255 256 257 258
256 254 253 252 251 251 250 249 249 250 250 249 247 245 243 242 243 243 243 243 244 243 242 243 245 245 246 247 247 246 246 247 248 249 249 250 252 253 254 255 256 257 258
257 255 253 252 251 250 250 249 249 250 250 249 247 245 244 243 243 243 243 243 244 244 243 242 244 246 247 247 247 247 247 248 249 249 250 250 251 253 254 255 256 256 257
257 255 253 252 250 249 249 249 249 249 249 248 247 245 243 243 244 244 244 243 244 244 243 243 244 245 246 246 246 247 247 248 249 250 251 251 251 252 254 254 255 255 256
258 256 253 252 250 249 249 249 249 248 248 247 246 244 242 243 243 244 244 244 244 243 243 243 243 244 245 245 246 247 248 248 249 250 251 251 251 252 253 254 254 255 255
257 256 253 252 250 249 249 249 249 248 247 247 245 243 242 243 243 244 244 244 244 244 244 244 244 244 245 245 247 247 247 249 250 251 251 251 251 251 252 253 253 254 255
257 255 253 251 250 249 249 248 247 247 247 247 246 244 243 243 244 244 244 245 244 244 244 244 244 244 245 246 247 248 249 249 250 250 250 251 252 252 251 252 253 253 254
257 255 254 253 252 250 249 248 247 246 246 246 246 245 244 244 244 244 245 245 244 244 244 244 244 245 246 247 247 248 250 250 250 250 250 250 251 251 250 251 252 253 254
258 256 255 253 253 251 249 249 248 246 246 247 246 245 245 245 244 244 245 245 244 244 245 245 245 246 246 246 247 249 250 250 250 250 250 251 251 250 250 251 251 253 254
259 257 256 254 252 250 249 249 248 247 247 246 247 246 246 245 244 244 244 245 245 245 245 246 246 246 247 247 247 248 249 249 249 250 250 250 250 250 250 251 251 252 253
260 257 255 254 252 250 249 249 248 247 246 245 246 247 246 245 245 244 244 245 246 246 247 247 247 247 247 248 248 249 249 250 250 250 250 251 250 250 249 250 251 252 254
260 257 255 255 254 252 250 249 247 246 245 245 246 246 245 245 245 244 245 245 246 247 248 248 248 248 248 248 248 249 249 249 250 250 250 251 251 251 250 250 251 251 253
Height
5771 5773 5774 5775 5777 5778 5780 5781 5783 5784 5786 5788 5791 5793 5796 5799 5801 5804 5806 5808 5810 5812 5814 5815 5817 5818 5820 5822 5823 5824 5825 5826 5827 5828 5828 5829 5829 5830 5830 5830 5830 5829 5829
5761 5763 5764 5765 5767 5769 5770 5772 5773 5775 5777 5779 5782 5785 5788 5791 5794 5796 5799 5801 5804 5806 5808 5810 5811 5813 5815 5817 5818 5820 5821 5822 5823 5824 5825 5825 5826 5826 5827 5827 5827 5827 5826
5750 5752 5754 5755 5757 5758 5760 5762 5764 5766 5768 5771 5774 5777 5780 5783 5786 5788 5791 5794 5796 5799 5801 5803 5805 5807 5809 5811 5813 5814 5816 5817 5819 5820 5820 5821 5822 5822 5823 5823 5823 5823 5823
5739 5741 5743 5745 5746 5748 5750 5752 5754 5756 5759 5761 5765 5768 5771 5774 5777 5780 5783 5786 5788 5791 5794 5796 5798 5800 5803 5805 5807 5809 5810 5812 5813 5814 5816 5816 5817 5818 5818 5819 5819 5819 5819
5727 5730 5732 5733 5735 5738 5740 5742 5744 5746 5749 5752 5755 5758 5761 5765 5768 5771 5774 5777 5780 5783 5785 5788 5791 5793 5795 5798 5800 5802 5804 5806 5807 5809 5810 5811 5812 5813 5813 5814 5814 5815 5815
5715 5718 5720 5722 5724 5726 5729 5731 5734 5736 5739 5742 5745 5749 5752 5755 5759 5762 5765 5768 5771 5774 5777 5779 5782 5785 5788 5790 5793 5795 5797 5799 5801 5802 5804 5805 5806 5807 5808 5809 5809 5809 5810
5703 5706 5708 5710 5712 5715 5717 5720 5722 5725 5728 5731 5735 5739 5742 5745 5749 5752 5756 5759 5762 5765 5768 5770 5773 5776 5779 5782 5785 5787 5789 5792 5793 5795 5797 5798 5799 5801 5801 5802 5803 5803 5804
5691 5693 5695 5698 5700 5703 5705 5708 5711 5714 5717 5721 5724 5727 5731 5736 5739 5742 5746 5749 5752 5755 5758 5761 5764 5767 5770 5773 5776 5779 5781 5784 5786 5788 5789 5791 5792 5793 5794 5795 5796 5797 5797
5679 5680 5683 5685 5687 5690 5693 5695 5698 5702 5706 5709 5712 5716 5720 5725 5728 5732 5735 5738 5741 5745 5748 5751 5754 5757 5760 5763 5767 5770 5772 5775 5777 5779 5781 5783 5784 5785 5787 5788 5789 5789 5790
5666 5667 5670 5672 5674 5677 5680 5683 5686 5689 5693 5697 5700 5703 5708 5712 5717 5721 5725 5728 5731 5734 5737 5741 5744 5747 5750 5753 5756 5759 5763 5765 5768 5770 5772 5774 5775 5777 5778 5779 5780 5781 5782
5652 5654 5656 5659 5661 5664 5667 5670 5673 5676 5680 5684 5687 5691 5695 5700 5704 5708 5714 5717 5720 5723 5726 5730 5733 5736 5739 5742 5745 5749 5752 5755 5758 5760 5762 5764 5766 5768 5769 5771 5772 5773 5774
5638 5640 5642 5645 5647 5650 5653 5656 5659 5662 5666 5669 5673 5677 5682 5687 5691 5695 5700 5705 5708 5712 5714 5718 5721 5725 5728 5731 5734 5738 5741 5744 5747 5750 5752 5755 5757 5759 5760 5762 5763 5764 5765
5624 5626 5628 5631 5633 5636 5640 5643 5646 5649 5652 5655 5659 5664 5668 5673 5677 5681 5687 5691 5696 5700 5702 5706 5709 5713 5716 5720 5723 5727 5730 5733 5736 5739 5741 5744 5747 5749 5750 5752 5753 5754 5755
5610 5612 5614 5617 5620 5623 5626 5629 5632 5635 5638 5642 5646 5650 5654 5659 5663 5668 5672 5677 5682 5686 5690 5694 5697 5700 5704 5708 5711 5715 5718 5721 5724 5727 5730 5733 5736 5738 5740 5741 5743 5744 5745
5595 5597 5600 5603 5605 5608 5612 5615 5618 5621 5625 5628 5632 5636 5640 5644 5648 5653 5658 5663 5668 5672 5677 5681 5684 5688 5691 5695 5698 5702 5706 5709 5712 5715 5718 5721 5724 5726 5729 5730 5732 5734 5735
5580 5582 5585 5588 5591 5594 5597 5601 5604 5607 5610 5614 5618 5622 5626 5630 5635 5639 5644 5648 5653 5658 5663 5668 5671 5675 5678 5681 5685 5689 5693 5696 5699 5702 5705 5709 5712 5714 5717 5719 5721 5722 5724
5565 5567 5570 5573 5576 5579 5583 5586 5589 5592 5596 5599 5603 5607 5612 5616 5621 5625 5629 5634 5639 5643 5649 5654 5657 5660 5664 5668 5671 5675 5679 5682 5685 5689 5692 5695 5698 5701 5704 5706 5709 5711 5713
5549 5552 5554 5557 5561 5564 5567 5571 5575 5578 5581 5585 5589 5593 5598 5602 5607 5611 5615 5619 5624 5628 5634 5639 5644 5647 5650 5654 5657 5661 5665 5668 5671 5675 5678 5681 5685 5688 5691 5693 5696 5698 5700
5534 5536 5539 5542 5546 5549 5552 5556 5560 5563 5567 5570 5574 5579 5584 5588 5592 5597 5601 5605 5610 5614 5619 5624 5629 5633 5636 5639 5643 5647 5650 5653 5657 5660 5663 5667 5670 5674 5677 5680 5683 5685 5688
5519 5521 5524 5527 5530 5533 5537 5541 5544 5548 5552 5555 5560 5565 5569 5574 5578 5582 5586 5590 5594 5599 5603 5608 5613 5618 5621 5625 5628 5632 5636 5639 5643 5646 5649 5652 5656 5659 5663 5666 5670 5672 5675
5504 5506 5509 5512 5515 5518 5521 5525 5529 5533 5536 5540 5545 5549 5554 5559 5563 5567 5571 5576 5580 5584 5588 5593 5598 5602 5606 5610 5614 5618 5621 5625 5628 5631 5635 5638 5642 5646 5648 5652 5655 5658 5661
5489 5491 5494 5497 5500 5503 5506 5509 5513 5517 5521 5525 5529 5534 5539 5543 5548 5552 5556 5560 5565 5569 5573 5578 5583 5587 5592 5595 5599 5603 5607 5610 5615 5619 5620 5624 5626 5630 5633 5637 5640 5643 5646
5473 5476 5479 5482 5485 5488 5491 5494 5497 5501 5506 5510 5515 5519 5524 5528 5532 5537 5541 5545 5549 5553 5558 5563 5567 5572 5577 5581 5585 5589 5592 5595 5600 5603 5605 5609 5612 5615 5619 5622 5625 5628 5631
5459 5461 5464 5467 5470 5473 5476 5479 5482 5486 5490 5495 5499 5504 5509 5513 5517 5521 5526 5530 5534 5538 5543 5548 5553 5558 5561 5564 5568 5572 5576 5580 5584 5586 5589 5593 5596 5600 5603 5606 5609 5613 5616
5447 5448 5450 5453 5456 5459 5462 5465 5468 5471 5475 5480 5484 5488 5493 5498 5502 5507 5511 5516 5520 5523 5526 5531 5536 5540 5544 5548 5551 5555 5559 5564 5568 5572 5574 5578 5581 5584 5587 5590 5594 5597 5600
5435 5436 5437 5440 5442 5445 5447 5450 5453 5457 5462 5466 5470 5474 5478 5482 5486 5490 5495 5500 5504 5508 5512 5515 5519 5523 5527 5531 5535 5539 5543 5548 5552 5556 5559 5562 5565 5567 5572 5575 5578 5581 5585